Weather History for Berlin, NH

Change the Weather History Date:

Tuesday, January 20, 1998

  Actual Average Record
Temperature  
Mean Temperature 26 °F -  
Max Temperature 30 °F 19 °F 45 °F (2013)
Min Temperature 23 °F 0 °F -20 °F (2000)
Degree Days  
Heating Degree Days 38    
Moisture  
Dew Point 23 °F    
Average Humidity 84    
Maximum Humidity 100    
Minimum Humidity 72    
Precipitation  
Precipitation 0.01 in - - ()
Sea Level Pressure  
Sea Level Pressure 29.94 in    
Wind  
Wind Speed 3 mph (North)    
Max Wind Speed 9 mph    
Max Gust Speed -    
Visibility 8 miles    
Events Snow    
Averages and records for this station are not official NWS values.
T = Trace of Precipitation, MM = Missing Value Source: NWS Daily Summary

Daily Weather History Graph

Daily Weather History Graph

Search for Another Location

Airport:

Trip Planner

Search our weather history database for the weather conditions in past years. The results will help you decide how hot, cold, wet, or windy it might be!

Date:

Astronomy

Jan. 20, 1998 Rise Set
Actual Time 7:14 AM EST 4:37 PM EST
Civil Twilight 6:42 AM EST 5:09 PM EST
Nautical Twilight 6:07 AM EST 5:44 PM EST
Astronomical Twilight 5:32 AM EST 6:19 PM EST
Moon No Moon Rise 11:07 AM EST (1/20)
Length of Visible Light 10h 26m
Length of Day
9h 22m
Waning Gibbous, 51% of the Moon is Illuminated
Jan 20
Waning Gibbous
Jan 20
Last Quarter
Jan 28
New
Feb 3
First Quarter
Feb 11
Full

Hourly Weather History & Observations

Time (EST) Temp. Windchill Dew Point Humidity Pressure Visibility Wind Dir Wind Speed Gust Speed Precip Events Conditions
12:02 AM 24.8 °F - 24.8 °F 100% 29.96 in 3.0 mi Calm Calm - 0.00 in Snow Light Snow
12:09 AM 24.8 °F - 24.8 °F 100% 29.95 in 2.5 mi Calm Calm - 0.00 in Snow Light Snow
12:21 AM 24.8 °F - 24.8 °F 100% 29.95 in 3.0 mi Calm Calm - 0.00 in Snow Light Snow
12:52 AM 25.0 °F - 24.1 °F 96% 30.00 in 3.0 mi Calm Calm - 0.00 in Snow Light Snow
1:52 AM 25.0 °F - 24.1 °F 96% 29.99 in 5.0 mi Calm Calm - 0.01 in   Overcast
2:12 AM 24.8 °F - 23.0 °F 93% 29.94 in 6.0 mi Calm Calm - N/A   Overcast
2:45 AM 24.8 °F - 23.0 °F 93% 29.93 in 5.0 mi Calm Calm - N/A   Overcast
2:52 AM 24.1 °F - 23.0 °F 96% 29.99 in 5.0 mi Calm Calm - N/A   Overcast
3:52 AM 24.1 °F - 21.0 °F 88% 29.98 in 6.0 mi Calm Calm - N/A   Overcast
4:52 AM 24.1 °F - 23.0 °F 96% 29.98 in 9.0 mi Calm Calm - N/A   Overcast
5:52 AM 24.1 °F - 23.0 °F 96% 29.98 in 7.0 mi Calm Calm - N/A   Overcast
6:52 AM 23.0 °F - 21.0 °F 92% 29.98 in 9.0 mi Calm Calm - N/A   Overcast
7:52 AM 24.1 °F - 21.9 °F 91% 29.98 in 10.0 mi Calm Calm - N/A   Overcast
8:45 AM 24.8 °F - 23.0 °F 93% 29.92 in 7.0 mi Calm Calm - N/A   Overcast
8:52 AM 25.0 °F - 23.0 °F 92% 29.97 in 7.0 mi Calm Calm - N/A   Overcast
9:03 AM 28.4 °F 22.2 °F 24.8 °F 86% 29.91 in 9.0 mi ENE 5.8 mph - N/A   Overcast
9:52 AM 30.0 °F 25.2 °F 24.1 °F 79% 29.97 in 10.0 mi ENE 4.6 mph - N/A   Overcast
10:52 AM 30.0 °F 25.2 °F 25.0 °F 82% 29.96 in 10.0 mi North 4.6 mph - N/A   Overcast
11:52 AM 30.0 °F 22.4 °F 24.1 °F 79% 29.94 in 10.0 mi North 8.1 mph - N/A   Mostly Cloudy
12:01 PM 30.2 °F 21.9 °F 24.8 °F 80% 29.88 in 10.0 mi North 9.2 mph - N/A   Mostly Cloudy
12:13 PM 30.2 °F 23.4 °F 23.0 °F 75% 29.87 in 10.0 mi North 6.9 mph - N/A   Overcast
12:30 PM 30.2 °F 21.9 °F 23.0 °F 75% 29.87 in 10.0 mi NNW 9.2 mph - N/A   Overcast
12:52 PM 30.9 °F 25.2 °F 23.0 °F 72% 29.91 in 10.0 mi North 5.8 mph - N/A   Overcast
1:04 PM 30.2 °F 24.3 °F 23.0 °F 75% 29.86 in 10.0 mi NNW 5.8 mph - N/A   Overcast
1:52 PM 30.9 °F 26.2 °F 23.0 °F 72% 29.91 in 10.0 mi North 4.6 mph - N/A   Overcast
2:13 PM 30.2 °F 23.4 °F 24.8 °F 80% 29.86 in 10.0 mi North 6.9 mph - N/A   Overcast
2:52 PM 30.9 °F 25.2 °F 24.1 °F 76% 29.91 in 10.0 mi North 5.8 mph - N/A   Overcast
3:52 PM 30.9 °F 26.2 °F 24.1 °F 76% 29.92 in 10.0 mi NW 4.6 mph - N/A   Overcast
4:22 PM 30.2 °F 22.6 °F 24.8 °F 80% 29.87 in 10.0 mi North 8.1 mph - N/A   Overcast
4:52 PM 30.0 °F 22.4 °F 23.0 °F 75% 29.94 in 10.0 mi North 8.1 mph - N/A   Overcast
5:27 PM 28.4 °F 22.2 °F 23.0 °F 80% 29.89 in 10.0 mi Variable 5.8 mph - N/A   Overcast
5:52 PM 28.9 °F 21.1 °F 24.1 °F 82% 29.95 in 10.0 mi North 8.1 mph - N/A   Overcast
6:52 PM 28.9 °F 22.8 °F 23.0 °F 78% 29.97 in 10.0 mi NNW 5.8 mph - N/A   Overcast
7:20 PM 28.4 °F 22.2 °F 21.2 °F 74% 29.91 in 10.0 mi Variable 5.8 mph - N/A   Overcast
7:52 PM 28.0 °F 21.7 °F 23.0 °F 81% 29.97 in 10.0 mi NW 5.8 mph - N/A   Overcast
8:25 PM 28.4 °F 22.2 °F 21.2 °F 74% 29.92 in 10.0 mi Variable 5.8 mph - N/A   Overcast
8:44 PM 28.4 °F 23.3 °F 21.2 °F 74% 29.92 in 10.0 mi NNW 4.6 mph - N/A   Overcast
8:52 PM 28.0 °F 21.7 °F 21.9 °F 78% 29.98 in 10.0 mi NW 5.8 mph - N/A   Overcast
9:26 PM 26.6 °F 22.6 °F 21.2 °F 80% 29.93 in 10.0 mi Variable 3.5 mph - N/A   Overcast
9:52 PM 27.0 °F 21.6 °F 23.0 °F 85% 29.98 in 10.0 mi NNW 4.6 mph - N/A   Overcast
10:52 PM 27.0 °F 20.5 °F 21.9 °F 81% 29.99 in 10.0 mi NW 5.8 mph - N/A   Overcast
11:52 PM 27.0 °F 18.7 °F 21.9 °F 81% 29.99 in 7.0 mi NNW 8.1 mph - 0.00 in   Overcast